User: anonymous   Login
Location: B?dargowo
(53.3916°N, 14.4413°E)
Time: 20:23:31
(UTC+00:00)
Language:

THORAD AGENA D DEB - Orbit

View from above orbital plane
View from above orbital plane
View from above satellite
View from above satellite

Ground track
Ground track

The orbit data is extracted from the following two-line orbital elements,

1 42499U 70025RD  24056.02438707  .00001155  00000-0  12122-2 0  9992
2 42499 100.1566 260.6991 0007212 208.4214 151.6541 13.77407580515168
Epoch (UTC): 25 February 2024 00:35:07
Eccentricity: 0.0007212
inclination: 100.1566°
perigee height: 968 km
apogee height: 978 km
right ascension of ascending node: 260.6991°
argument of perigee: 208.4214°
revolutions per day: 13.77407580
mean anomaly at epoch: 151.6541°
orbit number at epoch: 51516

The dashed part of the orbit path shows where the satellite is in the earth's shadow,  

DLR